Change the Weather History Date:

Wednesday, January 23, 2013

  Actual Average Record
Temperature  
Mean Temperature 9 °F -  
Max Temperature 17 °F 26 °F 48 °F (2012)
Min Temperature 1 °F 8 °F -11 °F (2005)
Degree Days  
Heating Degree Days 56    
Moisture  
Dew Point 5 °F    
Average Humidity 78    
Maximum Humidity 92    
Minimum Humidity 62    
Precipitation  
Precipitation 0.00 in - - ()
Sea Level Pressure  
Sea Level Pressure 30.17 in    
Wind  
Wind Speed 6 mph (WSW)    
Max Wind Speed 14 mph    
Max Gust Speed -    
Visibility 7 miles    
Events Snow    
Averages and records for this station are not official NWS values.
T = Trace of Precipitation, MM = Missing Value Source: NWS Daily Summary

Daily Weather History Graph

Daily Weather History Graph

Search for Another Location

Airport or City:

Trip Planner

Search our weather history database for the weather conditions in past years. The results will help you decide how hot, cold, wet, or windy it might be!

Date:

Astronomy

Jan. 23, 2013 Rise Set
Actual Time 7:56 AM EST 5:38 PM EST
Civil Twilight 7:25 AM EST 6:08 PM EST
Nautical Twilight 6:51 AM EST 6:42 PM EST
Astronomical Twilight 6:18 AM EST 7:15 PM EST
Moon 2:46 PM EST (1/23) 5:07 AM EST (1/23)
Length of Visible Light 10h 42m
Length of Day
9h 42m
Waxing Gibbous, 89% of the Moon is Illuminated
Jan 23
Waxing Gibbous
Jan 26
Full
Feb 3
Last Quarter
Feb 10
New
Feb 17
First Quarter

Hourly Weather History & Observations

Time (EST) Temp. Windchill Dew Point Humidity Pressure Visibility Wind Dir Wind Speed Gust Speed Precip Events Conditions
12:53 AM 6.1 °F -5.6 °F -0.9 °F 73% 30.31 in 10.0 mi West 6.9 mph - N/A   Overcast
1:53 AM 5.0 °F -6.9 °F -0.0 °F 80% 30.31 in 10.0 mi West 6.9 mph - N/A   Overcast
2:53 AM 5.0 °F -5.6 °F -0.0 °F 80% 30.31 in 10.0 mi WSW 5.8 mph - N/A   Overcast
3:53 AM 5.0 °F -4.1 °F -0.0 °F 80% 30.30 in 10.0 mi WSW 4.6 mph - N/A   Overcast
4:53 AM 3.9 °F -5.3 °F -0.9 °F 80% 30.30 in 10.0 mi West 4.6 mph - N/A   Overcast
5:53 AM 1.9 °F -5.6 °F -0.9 °F 88% 30.30 in 10.0 mi WSW 3.5 mph - N/A   Overcast
6:53 AM 3.0 °F -4.4 °F -0.9 °F 84% 30.29 in 10.0 mi SSW 3.5 mph - N/A   Partly Cloudy
7:53 AM 3.0 °F - -0.9 °F 84% 30.30 in 10.0 mi Calm Calm - N/A   Overcast
8:53 AM 5.0 °F -5.6 °F -0.0 °F 80% 30.29 in 10.0 mi SW 5.8 mph - N/A   Overcast
9:53 AM 8.1 °F -0.5 °F 1.0 °F 73% 30.28 in 10.0 mi SW 4.6 mph - N/A   Overcast
10:53 AM 10.9 °F -0.8 °F 3.9 °F 73% 30.27 in 10.0 mi SW 8.1 mph - N/A   Overcast
11:11 AM 10.4 °F -0.4 °F 3.2 °F 73% 30.21 in 10.0 mi SW 6.9 mph - N/A   Overcast
11:20 AM 10.4 °F -0.4 °F 3.2 °F 73% 30.21 in 9.0 mi SW 6.9 mph - N/A   Overcast
11:53 AM 12.0 °F -0.4 °F 5.0 °F 73% 30.25 in 8.0 mi WSW 9.2 mph - N/A   Overcast
12:27 PM 14.0 °F 1.2 °F 6.8 °F 73% 30.17 in 5.0 mi WSW 10.4 mph - 0.00 in Snow Light Snow
12:53 PM 15.1 °F 1.1 °F 7.0 °F 70% 30.21 in 10.0 mi West 12.7 mph - 0.00 in   Overcast
1:12 PM 15.8 °F 2.7 °F 6.8 °F 68% 30.13 in 9.0 mi SW 11.5 mph - N/A   Overcast
1:42 PM 15.8 °F 1.4 °F 6.8 °F 68% 30.12 in 9.0 mi WSW 13.8 mph - N/A   Overcast
1:53 PM 16.0 °F 1.7 °F 6.1 °F 65% 30.17 in 7.0 mi West 13.8 mph - N/A   Overcast
2:53 PM 17.1 °F 4.3 °F 6.1 °F 62% 30.15 in 10.0 mi WSW 11.5 mph - N/A   Overcast
3:53 PM 16.0 °F 3.6 °F 6.1 °F 65% 30.14 in 10.0 mi SW 10.4 mph - N/A   Overcast
4:45 PM 15.8 °F 4.2 °F 6.8 °F 68% 30.07 in 10.0 mi WSW 9.2 mph - N/A   Mostly Cloudy
4:53 PM 16.0 °F 2.9 °F 5.0 °F 62% 30.12 in 10.0 mi WSW 11.5 mph - N/A   Mostly Cloudy
5:53 PM 10.9 °F 4.7 °F 3.0 °F 70% 30.12 in 10.0 mi SW 3.5 mph - N/A   Mostly Cloudy
6:53 PM 12.9 °F 5.2 °F 5.0 °F 71% 30.12 in 10.0 mi SW 4.6 mph - N/A   Overcast
7:53 PM 12.9 °F 6.9 °F 5.0 °F 71% 30.12 in 10.0 mi SW 3.5 mph - N/A   Overcast
8:53 PM 14.0 °F 8.2 °F 8.1 °F 77% 30.11 in 6.0 mi SW 3.5 mph - 0.00 in Snow Light Snow
9:07 PM 12.2 °F 6.1 °F 8.6 °F 85% 30.05 in 2.5 mi SW 3.5 mph - 0.00 in Snow Light Snow
9:18 PM 12.2 °F - 8.6 °F 85% 30.05 in 1.5 mi Calm Calm - 0.00 in Snow Light Snow
9:36 PM 12.2 °F - 10.4 °F 92% 30.06 in 2.5 mi Calm Calm - 0.00 in Snow Light Snow
9:44 PM 12.2 °F - 10.4 °F 92% 30.06 in 3.0 mi Calm Calm - 0.00 in Snow Light Snow
9:53 PM 12.9 °F - 10.9 °F 92% 30.11 in 3.0 mi Calm Calm - 0.00 in Snow Light Snow
10:19 PM 14.0 °F - 10.4 °F 86% 30.05 in 2.0 mi Calm Calm - 0.00 in Snow Light Snow
10:31 PM 14.0 °F - 10.4 °F 86% 30.05 in 1.8 mi Calm Calm - 0.00 in Snow Light Snow
10:53 PM 14.0 °F - 10.9 °F 88% 30.11 in 1.5 mi Calm Calm - 0.00 in Snow Light Snow
11:22 PM 14.0 °F 6.5 °F 10.4 °F 86% 30.07 in 3.0 mi NW 4.6 mph - 0.00 in Snow Light Snow
11:34 PM 14.0 °F 6.5 °F 10.4 °F 86% 30.07 in 2.0 mi NNW 4.6 mph - 0.00 in Snow Light Snow
11:49 PM 14.0 °F 6.5 °F 10.4 °F 86% 30.07 in 3.0 mi NNW 4.6 mph - 0.00 in Snow Light Snow
11:53 PM 12.9 °F 5.2 °F 10.0 °F 88% 30.13 in 3.0 mi NW 4.6 mph - 0.00 in Snow Light Snow